Regional Weather Roundup
Issued by NWS

Home | Current Version | Previous Version | Text Only | Print | Product List | Glossary On
Versions: 1 2 3 4 5 6 7 8 9 10 11 12 13 14 15 16 17 18 19 20 21 22 23 24 25 26 27 28 29 30 31 32 33 34 35 36 37 38 39 40 41 42 43 44 45 46 47 48 49 50
000
ASUS44 KEWX 240103
RWRTX
SOUTH TEXAS REGIONAL WEATHER ROUNDUP
NATIONAL WEATHER SERVICE AUSTIN/SAN ANTONIO TX
800 PM CDT SUN JUL 23 2017

NOTE: "FAIR" INDICATED FEW OR NO CLOUDS BELOW 12,000 FEET WITH NO
SIGNIFICANT WEATHER AND/OR OBSTRUCTIONS TO VISIBILITY.

* - THESE STATIONS ARE NOT NWS OR FAA STATIONS...AND ARE NOT SUBJECT
    TO NWS AND FAA QUALITY CONTROL.

TXZ171-172-183>190-240200-
TEXAS HILL COUNTRY AND EDWARDS PLATEAU

CITY           SKY/WX    TMP DP  RH WIND       PRES   REMARKS
JUNCTION       CLOUDY    76  69  79 W3        29.97R
*LLANO         CLOUDY    77  70  78 CALM      29.92F
BURNET         CLOUDY    81  64  56 SW3       29.91F
*HORSESHOE BAY CLOUDY    76  69  78 CALM      29.89S
*KERRVILLE     DRIZZLE   72  69  93 NW5       29.93S
*FREDERICKSBRG CLOUDY    73  68  84 CALM      29.93S
*ROCKSPRINGS   NOT AVBL
*BOERNE STAGE  MOCLDY    79  61  53 NE5       29.91S
*CASTROVILLE   MOCLDY    88  55  32 CALM      29.87F
HONDO          CLOUDY    85  63  47 NE9       29.87S
*UVALDE        CLOUDY    86  66  51 NE13      29.88R
DEL RIO        MOCLDY    88  67  49 NE22G37   29.85R HX  91
LAUGHLIN AFB   NOT AVBL
CARRIZO SPRGS  PTCLDY    99  59  26 E6        29.79R HX  98
*EAGLE PASS    PTCLDY    99  59  26 E9        29.81  HX  98
$$

TXZ173-191>194-202-209-217>225-228-240200-
CENTRAL AND SOUTH CENTRAL TEXAS

CITY           SKY/WX    TMP DP  RH WIND       PRES   REMARKS
GEORGETOWN     CLEAR     97  73  46 SW6       29.86F HX 107
AUSTIN/BERGSTM MOCLDY    86  71  60 N5        29.85S HX  91
AUSTIN/MABRY   CLOUDY    83  70  64 CALM      29.87F
*AUSTIN/EXEC     N/A     84  72  65 CALM      29.86F
*LAGO VISTA    PTCLDY    81  66  60 W5        29.89F
SAN MARCOS     PTCLDY    84  66  54 N6        29.87S
NEW BRAUNFELS  MOCLDY    84  67  56 NW7       29.84S
RANDOLPH AFB   MOCLDY    85  66  52 N7        29.86S
PT SAN ANTONIO MOCLDY    88  62  42 N7        29.84S
SAN ANTONIO    MOCLDY    87  62  43 NW6       29.86F
STINSON FIELD  CLOUDY    90  64  42 N6        29.83F HX  91
*LA GRANGE     CLOUDY    92  74  55 S9        29.83S HX 100
*GIDDINGS      CLOUDY    88  68  51 CALM      29.86S HX  91
*GONZALES      CLOUDY    92  74  55 S13       29.84R HX 102
$$

TXZ163>164-176>182-195>201-210>213-226-227-235-240200-
SOUTHEAST TEXAS

CITY           SKY/WX    TMP DP  RH WIND       PRES   REMARKS
COLLEGE STN    CLOUDY    94  70  45 S14       29.85R HX 100
*BRYAN         CLOUDY    93  70  46 SE10      29.87R HX  98
*CALDWELL      NOT AVBL
*CROCKETT      CLOUDY    84  75  74 CALM      29.91R HX  92
*BRENHAM       CLOUDY    92  72  51 S9G17     29.87R HX  99
HUNTSVILLE     PTCLDY    90  71  53 S7        29.89R HX  96
CONROE         PTCLDY    87  75  67 SE5       29.90R HX  96
HOUSTON BUSH   MOCLDY    88  73  61 S7        29.89R HX  95
HOUSTON HOBBY  MOCLDY    88  73  61 S13G18    29.90R HX  95
*HOUSTON SW AP MOCLDY    84  74  72 S5        29.91R HX  90
PEARLAND       MOCLDY    88  73  61 S8        29.92R HX  95
HOUSTON HOOKS  MOCLDY    88  73  61 S8        29.89R HX  95
ELLINGTON FLD  MOCLDY    88  73  62 S14       29.91R HX  96
SUGAR LAND     MOCLDY    87  74  64 S9G21     29.89R HX  95
*HOUSTON EXEC  MOCLDY    86  73  66 S15G21    29.89R HX  93
*CLEVELAND MUN MOCLDY    85  77  75 CALM      29.91R HAZE    HX  96
*WHARTON       CLEAR     85  71  61 S10       29.90R HX  90
*COLUMBUS      FAIR      87  69  55 S12       29.89R HX  91
*EAGLE LAKE    CLOUDY    88  74  64 S12G20    29.88R HX  96
$$

TXZ214>216-236>238-240200-
THE UPPER TEXAS COAST

CITY           SKY/WX    TMP DP  RH WIND       PRES   REMARKS
*ORANGE        CLOUDY    77  76  96 CALM      29.95R
PORT ARTHUR    CLOUDY    82  75  79 S5        29.92R
GALVESTON      PTCLDY    86  76  71 S14       29.92R HX  96
ANGLETON       CLOUDY    86  75  69 S10       29.91R HX  95
*BAY CITY      CLEAR     86  75  70 S12       29.90R HX  95
PALACIOS       NOT AVBL
$$

TXZ229>234-239>247-240200-
TEXAS COASTAL BEND AND RIO GRANDE PLAINS

CITY           SKY/WX    TMP DP  RH WIND       PRES   REMARKS
VICTORIA       PTCLDY    88  73  61 S14       29.88R HX  95
*BEEVILLE      CLEAR     91  74  58 SE14G20   29.86R HX 100
ROCKPORT       CLEAR     86  75  69 S13G25    29.86S HX  95
*PORT ARANSAS  CLEAR     85  75  73 S17G24    29.88S HX  93
*PORT LAVACA   CLEAR     85  73  68 S13G20    29.88S HX  91
*INGLESIDE     CLEAR     87  76  70 MISG      29.87R HX  97
CORPUS CHRISTI CLEAR     86  75  69 SE21G30   29.86R HX  95
CORPUS NAS     CLEAR     86  78  77 SE17G28   29.87R HX  98
*ROBSTOWN      CLEAR     89  74  60 SE21      29.86R HX  97
ALICE          LGT RAIN  89  73  59 SE21G28   29.83S HX  97
KINGSVILLE NAS CLEAR     88  77  69 SE18G25   29.85R HX 100
COTULLA        CLEAR     99  57  24 S9        29.79S HX  98
*FAITH RANCH   CLEAR    100  57  23 SE10G16   29.80R HX  99
LAREDO         CLEAR    101  61  26 E14       29.81R HX 102
$$

TXZ248>255-240200-
DEEP SOUTH TEXAS

CITY           SKY/WX    TMP DP  RH WIND       PRES   REMARKS
BROWNSVILLE    CLEAR     85  76  74 S21G26    29.88R HX  94
PORT ISABEL    CLEAR     87  76  69 S20G30    29.86S HX  97
*SOUTH PADRE   NOT AVBL
HARLINGEN      CLEAR     88  74  63 S23G31    29.85R HX  96
*HEBBRONVILLE  CLEAR     94  62  34 SE14      29.84S HX  95
MCALLEN        CLEAR     90  73  57 SE25G33   29.84R HX  98
*WESLACO       CLEAR     88  73  60 S20G29    29.84R HX  95
FALFURRIAS     CLEAR     93  63  36 SE13G20   29.84R HX  94
EDINBURG       CLEAR     91  69  47 SE15G22   29.85R HX  96
*ZAPATA        CLEAR     99  62  30 E17G25    29.78R HX 100
$$

TXZ213>215-236>238-242>244-246-247-251-254-255-240200-
CMAN STATIONS

STATION/POSITION TIME  TEMP    WIND        PRES    WAVE
                       AIR SEA DIR/SP/G            HT/PER
                 (UTC) (F)     (DEG/KT/KT) (MB)    (FT/S)
SABINE PASS      0030   86 88  200/ 12/ 15 1014.4
SEA RIM ST PARK  0000   86     210/ 14/ 18 1013.0
NORTH JETTY/GLS  0024      88  200/ 13/ 17 1012.3
EAGLE POINT      0030   86 88  210/ 15/ 19 1012.5
MORGANS POINT    0030   87 88  190/ 11/ 16 1012.2
MISSION/ARANSAS  0000          160/ 20     1012.0
PORT O`CONNOR    0024   85     180/ 21/ 23 1011.3
PORT ARANSAS     0000   85 87  150/ 24/ 26 1011.5
MALAQUITE BEACH  0024   85 87  140/ 21/ 25 1011.0
BAFFIN BAY       0024   85 87              1011.4
PORT ISABEL      0024   85 85              1011.5
$$

GMZ080-GMZ150>470-240200-
OFFSHORE BUOY REPORTS

STATION/POSITION TIME  TEMP    WIND        PRES    WAVE
                       AIR SEA DIR/SP/G            HT/PER
                 (UTC) (F)     (DEG/KT/KT) (MB)    (FT/S)
20 E GALVESTON   2350   86 87  210/ 16/ 17 1012.6    4/ 6
90 E PT ARANSAS  2350   85 86  170/ 14/ 16 1012.7    4/ 6
35 NE PT MANSFLD 2350   85     170/ 17/ 19 1010.8    5/ 6
200 E PT ISABEL  2350   86 87  160/ 10/ 12 1013.9    3/ 5
$$




USA.gov is the U.S. government's official web portal to all federal, state and local government web resources and services.